Overview Statistics Trail Chart Weather Telemetry Raw packets
 

This is the latest recevied weather packets stored in our database for station/object N9DMT-13. If no packets are shown the sender has not sent any weather packets the latest 10 day(s).

<< 36 37 38 39 40 41 42 >>
Time Temp. Humidity Pressure Rain* Wind** Luminosity Snow
1777647449 9.44° C 47% 985.4 hPa 0 mm - - -
1777647148 8.89° C 50% 985.4 hPa 0 mm - - -
1777646847 8.89° C 51% 985.3 hPa 0 mm - - -
1777646547 8.33° C 53% 985.4 hPa 0 mm - - -
1777646246 8.33° C 51% 985.5 hPa 0 mm - - -
1777645945 8.89° C 52% 985.6 hPa 0 mm - - -
1777645644 8.33° C 52% 985.6 hPa 0 mm - - -
1777645343 7.22° C 55% 985.6 hPa 0 mm - - -
1777645043 7.22° C 56% 985.4 hPa 0 mm - - -
1777644742 7.22° C 56% 985.6 hPa 0 mm - - -
1777644439 6.67° C 58% 985.5 hPa 0 mm - - -
1777644138 6.67° C 60% 985.7 hPa 0 mm - - -
1777643838 6.67° C 59% 985.4 hPa 0 mm - - -
1777643537 6.67° C 59% 985.5 hPa 0 mm - - -
1777643237 6.67° C 58% 985.4 hPa 0 mm - - -
1777642936 6.67° C 59% 985.4 hPa 0 mm - - -
1777642635 6.67° C 62% 985.4 hPa 0 mm - - -
1777642334 6.67° C 63% 985.4 hPa 0 mm - - -
1777642033 6.67° C 63% 985.5 hPa 0 mm - - -
1777641732 6.67° C 63% 985.3 hPa 0 mm - - -
1777641431 7.78° C 64% 985.3 hPa 0 mm - - -
1777641131 6.67° C 65% 985.4 hPa 0 mm - - -
1777640830 6.67° C 65% 985.3 hPa 0 mm - - -
1777640529 5.56° C 70% 985.4 hPa 0 mm - - -
1777640228 5.56° C 70% 985.3 hPa 0 mm - - -

* Rain latest hour (hover to see other rain measurements)
** Current wind speed in m/s (hover to see current wind gust speed)